Time,TemperatureF,DewpointF,PressureIn,WindDirection,WindDirectionDegrees,WindSpeedMPH,WindSpeedGustMPH,Humidity,HourlyPrecipIn,Conditions,Clouds,dailyrainin,SoftwareType,DateUTC
2013-05-04 00:02:00,39.0,36.0,30.10,North,359,8.0,14.0,89,0.00,,,0.00,,2013-05-04 05:02:00,
2013-05-04 00:11:00,38.0,36.0,30.10,North,5,8.0,13.0,91,0.00,,,0.00,,2013-05-04 05:11:00,
2013-05-04 00:22:00,38.0,36.0,30.10,North,5,8.0,13.0,91,0.00,,,0.00,,2013-05-04 05:22:00,
2013-05-04 00:32:00,39.0,37.0,30.10,North,355,8.0,12.0,92,0.00,,,0.00,,2013-05-04 05:32:00,
2013-05-04 00:42:00,39.0,37.0,30.10,North,355,8.0,12.0,92,0.00,,,0.00,,2013-05-04 05:42:00,
2013-05-04 00:52:00,38.0,37.0,30.09,North,356,7.0,10.0,95,0.00,,,0.00,,2013-05-04 05:52:00,
2013-05-04 01:01:00,38.0,37.0,30.09,North,1,9.0,12.0,95,0.00,,,0.00,,2013-05-04 06:01:00,
2013-05-04 01:11:00,38.0,37.0,30.10,North,9,3.0,7.0,96,0.00,,,0.00,,2013-05-04 06:11:00,
2013-05-04 01:21:00,38.0,37.0,30.10,North,9,3.0,7.0,96,0.00,,,0.00,,2013-05-04 06:21:00,
2013-05-04 01:32:00,38.0,37.0,30.10,North,7,10.0,15.0,96,0.00,,,0.00,,2013-05-04 06:32:00,
2013-05-04 01:41:00,38.0,37.0,30.10,North,7,10.0,15.0,96,0.00,,,0.00,,2013-05-04 06:41:00,
2013-05-04 01:52:00,37.0,36.0,30.09,NNW,346,9.0,13.0,97,0.00,,,0.00,,2013-05-04 06:52:00,
2013-05-04 02:01:00,37.0,36.0,30.09,North,1,7.0,10.0,97,0.00,,,0.00,,2013-05-04 07:01:00,
2013-05-04 02:11:00,37.0,36.0,30.08,North,1,8.0,12.0,98,0.00,,,0.00,,2013-05-04 07:11:00,
2013-05-04 02:21:00,37.0,36.0,30.08,North,1,8.0,12.0,98,0.00,,,0.00,,2013-05-04 07:21:00,
2013-05-04 02:32:00,37.0,36.0,30.08,NNW,347,14.0,16.0,97,0.00,,,0.00,,2013-05-04 07:32:00,
2013-05-04 02:42:00,37.0,36.0,30.08,NNW,347,14.0,16.0,97,0.00,,,0.00,,2013-05-04 07:42:00,
2013-05-04 02:52:00,37.0,36.0,30.07,NNW,332,12.0,13.0,97,0.00,,,0.00,,2013-05-04 07:52:00,
2013-05-04 03:01:00,37.0,36.0,30.07,NNW,346,9.0,15.0,98,0.00,,,0.00,,2013-05-04 08:01:00,
2013-05-04 03:11:00,37.0,36.0,30.07,NNW,346,9.0,15.0,98,0.00,,,0.00,,2013-05-04 08:11:00,
2013-05-04 03:21:00,37.0,37.0,30.06,NNW,342,9.0,16.0,99,0.00,,,0.00,,2013-05-04 08:21:00,
2013-05-04 03:31:00,37.0,37.0,30.06,North,349,12.0,16.0,99,0.00,,,0.00,,2013-05-04 08:31:00,
2013-05-04 03:41:00,37.0,37.0,30.06,North,349,12.0,16.0,99,0.00,,,0.00,,2013-05-04 08:41:00,
2013-05-04 03:52:00,36.0,36.0,30.06,NNW,346,9.0,13.0,99,0.00,,,0.00,,2013-05-04 08:52:00,
2013-05-04 04:02:00,37.0,37.0,30.06,North,351,9.0,14.0,99,0.00,,,0.00,,2013-05-04 09:02:00,
2013-05-04 04:11:00,37.0,37.0,30.06,North,351,9.0,14.0,99,0.00,,,0.00,,2013-05-04 09:11:00,
2013-05-04 04:21:00,36.0,36.0,30.07,North,350,13.0,18.0,99,0.00,,,0.00,,2013-05-04 09:21:00,
2013-05-04 04:32:00,36.0,36.0,30.07,North,351,10.0,17.0,99,0.00,,,0.00,,2013-05-04 09:32:00,
2013-05-04 04:42:00,36.0,36.0,30.07,North,351,10.0,17.0,99,0.00,,,0.00,,2013-05-04 09:42:00,
2013-05-04 04:53:00,36.0,36.0,30.07,North,356,10.0,17.0,99,0.00,,,0.00,,2013-05-04 09:53:00,
2013-05-04 05:02:00,36.0,36.0,30.07,North,353,9.0,12.0,99,0.00,,,0.00,,2013-05-04 10:02:00,
2013-05-04 05:12:00,36.0,36.0,30.07,North,353,9.0,12.0,99,0.00,,,0.00,,2013-05-04 10:12:00,
2013-05-04 05:22:00,36.0,36.0,30.06,NNW,333,12.0,15.0,99,0.00,,,0.00,,2013-05-04 10:22:00,
2013-05-04 05:33:00,36.0,36.0,30.06,NNW,345,10.0,13.0,99,0.00,,,0.00,,2013-05-04 10:33:00,
2013-05-04 05:42:00,36.0,36.0,30.06,NNW,345,10.0,13.0,99,0.00,,,0.00,,2013-05-04 10:42:00,
2013-05-04 05:53:00,36.0,36.0,30.06,NNW,335,13.0,16.0,99,0.00,,,0.00,,2013-05-04 10:53:00,
2013-05-04 06:02:00,35.0,35.0,30.06,NNW,329,12.0,15.0,99,0.00,,,0.00,,2013-05-04 11:02:00,
2013-05-04 06:11:00,35.0,35.0,30.06,NNW,329,12.0,15.0,99,0.00,,,0.00,,2013-05-04 11:11:00,
2013-05-04 06:21:00,36.0,36.0,30.07,NNW,331,9.0,16.0,99,0.00,,,0.00,,2013-05-04 11:21:00,
2013-05-04 06:32:00,36.0,36.0,30.07,North,355,9.0,13.0,99,0.00,,,0.00,,2013-05-04 11:32:00,
2013-05-04 06:42:00,36.0,36.0,30.07,North,355,9.0,13.0,99,0.00,,,0.00,,2013-05-04 11:42:00,
2013-05-04 07:04:00,35.0,35.0,30.08,NNW,347,10.0,15.0,99,0.00,,,0.00,,2013-05-04 12:04:00,
2013-05-04 07:13:00,35.0,35.0,30.08,NNW,347,10.0,15.0,99,0.00,,,0.00,,2013-05-04 12:13:00,
2013-05-04 07:42:00,35.0,35.0,30.08,NNW,339,10.0,14.0,99,0.00,,,0.00,,2013-05-04 12:42:00,
2013-05-04 07:52:00,35.0,35.0,30.08,NNW,337,8.0,10.0,99,0.00,,,0.00,,2013-05-04 12:52:00,
2013-05-04 08:01:00,35.0,35.0,30.08,NNW,339,8.0,9.0,99,0.00,,,0.00,,2013-05-04 13:01:00,
2013-05-04 08:32:00,35.0,35.0,30.09,NNW,334,9.0,13.0,99,0.00,,,0.00,,2013-05-04 13:32:00,
2013-05-04 08:41:00,35.0,35.0,30.09,NNW,334,9.0,13.0,99,0.00,,,0.00,,2013-05-04 13:41:00,
2013-05-04 08:52:00,35.0,35.0,30.09,NNW,342,8.0,12.0,99,0.00,,,0.00,,2013-05-04 13:52:00,
2013-05-04 09:02:00,35.0,35.0,30.09,NNW,343,9.0,14.0,99,0.00,,,0.00,,2013-05-04 14:02:00,
2013-05-04 09:11:00,35.0,35.0,30.09,NNW,343,9.0,14.0,99,0.00,,,0.00,,2013-05-04 14:11:00,
2013-05-04 09:21:00,36.0,36.0,30.10,NNW,345,8.0,9.0,99,0.00,,,0.00,,2013-05-04 14:21:00,
2013-05-04 09:32:00,36.0,36.0,30.10,NNW,337,6.0,7.0,99,0.00,,,0.00,,2013-05-04 14:32:00,
2013-05-04 09:41:00,36.0,36.0,30.10,NNW,337,6.0,7.0,99,0.00,,,0.00,,2013-05-04 14:41:00,
2013-05-04 09:52:00,36.0,36.0,30.10,NNW,340,8.0,14.0,99,0.00,,,0.00,,2013-05-04 14:52:00,
2013-05-04 10:02:00,36.0,36.0,30.09,NNW,346,9.0,12.0,99,0.01,,,0.01,,2013-05-04 15:02:00,
2013-05-04 10:11:00,36.0,36.0,30.09,NNW,346,9.0,12.0,99,0.01,,,0.01,,2013-05-04 15:11:00,
2013-05-04 10:22:00,36.0,36.0,30.10,NNW,337,12.0,16.0,99,0.01,,,0.01,,2013-05-04 15:22:00,
2013-05-04 10:33:00,36.0,36.0,30.10,North,349,9.0,14.0,99,0.01,,,0.01,,2013-05-04 15:33:00,
2013-05-04 10:43:00,36.0,36.0,30.10,North,349,9.0,14.0,99,0.01,,,0.01,,2013-05-04 15:43:00,
2013-05-04 10:53:00,36.0,36.0,30.10,NNW,341,9.0,14.0,99,0.01,,,0.01,,2013-05-04 15:53:00,
2013-05-04 11:03:00,36.0,36.0,30.10,NNW,338,9.0,12.0,99,0.00,,,0.01,,2013-05-04 16:03:00,
2013-05-04 11:12:00,36.0,36.0,30.10,NNW,338,9.0,12.0,99,0.00,,,0.01,,2013-05-04 16:12:00,
2013-05-04 11:22:00,37.0,37.0,30.11,NNW,342,8.0,16.0,99,0.00,,,0.01,,2013-05-04 16:22:00,
2013-05-04 11:33:00,37.0,37.0,30.11,NNW,336,9.0,16.0,99,0.00,,,0.01,,2013-05-04 16:33:00,
2013-05-04 11:42:00,37.0,37.0,30.11,NNW,336,9.0,16.0,99,0.00,,,0.01,,2013-05-04 16:42:00,
2013-05-04 11:52:00,38.0,38.0,30.11,NNW,345,8.0,10.0,99,0.00,,,0.01,,2013-05-04 16:52:00,
2013-05-04 12:02:00,38.0,38.0,30.11,NNW,334,10.0,13.0,99,0.00,,,0.01,,2013-05-04 17:02:00,
2013-05-04 12:12:00,38.0,38.0,30.11,NNW,334,10.0,13.0,99,0.00,,,0.01,,2013-05-04 17:12:00,
2013-05-04 12:22:00,38.0,38.0,30.11,North,353,10.0,14.0,99,0.00,,,0.01,,2013-05-04 17:22:00,
2013-05-04 12:32:00,38.0,38.0,30.11,North,350,12.0,20.0,99,0.00,,,0.01,,2013-05-04 17:32:00,
2013-05-04 12:42:00,38.0,38.0,30.11,North,350,12.0,20.0,99,0.00,,,0.01,,2013-05-04 17:42:00,
2013-05-04 12:52:00,38.0,38.0,30.11,NNW,338,10.0,12.0,99,0.00,,,0.01,,2013-05-04 17:52:00,
2013-05-04 13:01:00,38.0,38.0,30.12,NNW,342,9.0,15.0,99,0.00,,,0.01,,2013-05-04 18:01:00,
2013-05-04 13:12:00,38.0,38.0,30.12,NNW,342,9.0,15.0,99,0.00,,,0.01,,2013-05-04 18:12:00,
2013-05-04 13:21:00,39.0,39.0,30.13,North,354,7.0,7.0,99,0.00,,,0.01,,2013-05-04 18:21:00,
2013-05-04 13:32:00,39.0,39.0,30.13,NNW,343,10.0,13.0,99,0.00,,,0.01,,2013-05-04 18:32:00,
2013-05-04 13:42:00,39.0,39.0,30.13,NNW,343,10.0,13.0,99,0.00,,,0.01,,2013-05-04 18:42:00,
2013-05-04 13:52:00,39.0,39.0,30.13,North,358,9.0,13.0,99,0.00,,,0.01,,2013-05-04 18:52:00,
2013-05-04 14:01:00,39.0,39.0,30.13,NNW,348,7.0,10.0,99,0.00,,,0.01,,2013-05-04 19:01:00,
2013-05-04 14:11:00,39.0,39.0,30.13,NNW,348,7.0,10.0,99,0.00,,,0.01,,2013-05-04 19:11:00,
2013-05-04 14:21:00,39.0,39.0,30.13,NNW,329,8.0,10.0,99,0.00,,,0.01,,2013-05-04 19:21:00,
2013-05-04 14:32:00,40.0,40.0,30.12,NNW,347,9.0,12.0,99,0.00,,,0.01,,2013-05-04 19:32:00,
2013-05-04 14:42:00,40.0,40.0,30.12,NNW,347,9.0,12.0,99,0.00,,,0.01,,2013-05-04 19:42:00,
2013-05-04 14:52:00,40.0,40.0,30.12,NNW,334,9.0,13.0,99,0.00,,,0.01,,2013-05-04 19:52:00,
2013-05-04 15:02:00,40.0,40.0,30.12,NW,323,9.0,12.0,99,0.00,,,0.01,,2013-05-04 20:02:00,
2013-05-04 15:11:00,40.0,40.0,30.12,NW,323,9.0,12.0,99,0.00,,,0.01,,2013-05-04 20:11:00,
2013-05-04 15:22:00,40.0,40.0,30.12,NNW,347,9.0,12.0,99,0.00,,,0.01,,2013-05-04 20:22:00,
2013-05-04 15:32:00,40.0,40.0,30.13,NNW,348,9.0,10.0,99,0.00,,,0.01,,2013-05-04 20:32:00,
2013-05-04 15:42:00,40.0,40.0,30.13,NNW,348,9.0,10.0,99,0.00,,,0.01,,2013-05-04 20:42:00,
2013-05-04 15:52:00,41.0,41.0,30.14,North,358,6.0,8.0,99,0.00,,,0.01,,2013-05-04 20:52:00,
2013-05-04 16:02:00,40.0,40.0,30.14,NNW,344,6.0,8.0,99,0.00,,,0.01,,2013-05-04 21:02:00,
2013-05-04 16:11:00,40.0,40.0,30.14,NNW,344,6.0,8.0,99,0.00,,,0.01,,2013-05-04 21:11:00,
2013-05-04 16:22:00,40.0,40.0,30.13,NNW,331,9.0,13.0,99,0.00,,,0.01,,2013-05-04 21:22:00,
2013-05-04 16:33:00,40.0,40.0,30.14,NNW,344,8.0,10.0,99,0.00,,,0.01,,2013-05-04 21:33:00,
2013-05-04 16:43:00,40.0,40.0,30.14,NNW,344,8.0,10.0,99,0.00,,,0.01,,2013-05-04 21:43:00,
2013-05-04 16:53:00,40.0,40.0,30.13,North,356,8.0,10.0,99,0.00,,,0.01,,2013-05-04 21:53:00,
2013-05-04 17:03:00,40.0,40.0,30.13,NNW,330,12.0,15.0,99,0.00,,,0.01,,2013-05-04 22:03:00,
2013-05-04 17:12:00,40.0,40.0,30.13,NNW,330,12.0,15.0,99,0.00,,,0.01,,2013-05-04 22:12:00,
2013-05-04 17:22:00,40.0,40.0,30.13,NNW,339,7.0,7.0,99,0.00,,,0.01,,2013-05-04 22:22:00,
2013-05-04 17:33:00,40.0,40.0,30.14,North,352,9.0,12.0,99,0.00,,,0.01,,2013-05-04 22:33:00,
2013-05-04 17:42:00,40.0,40.0,30.14,NNW,346,7.0,10.0,99,0.00,,,0.01,,2013-05-04 22:42:00,
2013-05-04 17:52:00,40.0,40.0,30.14,NNW,346,7.0,10.0,99,0.00,,,0.01,,2013-05-04 22:52:00,
2013-05-04 18:02:00,40.0,40.0,30.14,North,350,8.0,13.0,99,0.00,,,0.01,,2013-05-04 23:02:00,
2013-05-04 18:11:00,40.0,40.0,30.14,North,350,8.0,13.0,99,0.00,,,0.01,,2013-05-04 23:11:00,
2013-05-04 18:21:00,40.0,40.0,30.14,NNW,335,8.0,10.0,99,0.01,,,0.02,,2013-05-04 23:21:00,
2013-05-04 18:32:00,41.0,41.0,30.14,NNW,341,8.0,10.0,99,0.01,,,0.02,,2013-05-04 23:32:00,
2013-05-04 18:42:00,41.0,41.0,30.14,NNW,341,8.0,10.0,99,0.01,,,0.02,,2013-05-04 23:42:00,
2013-05-04 18:52:00,40.0,40.0,30.15,NW,325,7.0,14.0,99,0.01,,,0.02,,2013-05-04 23:52:00,
2013-05-04 19:01:00,40.0,40.0,30.15,NNW,332,8.0,9.0,99,0.01,,,0.02,,2013-05-05 00:01:00,
2013-05-04 19:11:00,40.0,40.0,30.15,NNW,332,8.0,9.0,99,0.01,,,0.02,,2013-05-05 00:11:00,
2013-05-04 19:21:00,40.0,40.0,30.14,NNW,340,9.0,13.0,99,0.00,,,0.02,,2013-05-05 00:21:00,
2013-05-04 19:31:00,40.0,40.0,30.15,NNW,334,8.0,9.0,99,0.00,,,0.02,,2013-05-05 00:31:00,
2013-05-04 19:42:00,40.0,40.0,30.15,NNW,334,8.0,9.0,99,0.00,,,0.02,,2013-05-05 00:42:00,
2013-05-04 19:52:00,41.0,41.0,30.15,NNW,336,9.0,13.0,99,0.00,,,0.02,,2013-05-05 00:52:00,
2013-05-04 20:01:00,41.0,41.0,30.15,NNW,335,10.0,14.0,99,0.00,,,0.02,,2013-05-05 01:01:00,
2013-05-04 20:11:00,41.0,41.0,30.16,NNW,334,8.0,13.0,99,0.00,,,0.02,,2013-05-05 01:11:00,
2013-05-04 20:21:00,41.0,41.0,30.16,NNW,334,8.0,13.0,99,0.00,,,0.02,,2013-05-05 01:21:00,
2013-05-04 20:32:00,41.0,41.0,30.16,NNW,342,7.0,10.0,99,0.00,,,0.02,,2013-05-05 01:32:00,
2013-05-04 20:42:00,41.0,41.0,30.16,NNW,342,7.0,10.0,99,0.00,,,0.02,,2013-05-05 01:42:00,
2013-05-04 20:52:00,40.0,40.0,30.16,NNW,332,8.0,10.0,99,0.00,,,0.02,,2013-05-05 01:52:00,
2013-05-04 21:02:00,40.0,40.0,30.16,NNW,339,7.0,9.0,99,0.00,,,0.02,,2013-05-05 02:02:00,
2013-05-04 21:11:00,40.0,40.0,30.16,NNW,339,7.0,9.0,99,0.00,,,0.02,,2013-05-05 02:11:00,
2013-05-04 21:21:00,40.0,40.0,30.16,NNW,348,7.0,8.0,99,0.00,,,0.02,,2013-05-05 02:21:00,
2013-05-04 21:31:00,40.0,40.0,30.16,NNW,335,7.0,9.0,99,0.00,,,0.02,,2013-05-05 02:31:00,
2013-05-04 21:42:00,40.0,40.0,30.16,NNW,335,7.0,9.0,99,0.00,,,0.02,,2013-05-05 02:42:00,
2013-05-04 21:52:00,40.0,40.0,30.16,NNW,342,7.0,9.0,99,0.00,,,0.02,,2013-05-05 02:52:00,
2013-05-04 22:01:00,40.0,40.0,30.17,NNW,343,6.0,9.0,99,0.00,,,0.02,,2013-05-05 03:01:00,
2013-05-04 22:11:00,40.0,40.0,30.18,NNW,333,3.0,5.0,99,0.00,,,0.02,,2013-05-05 03:11:00,
2013-05-04 22:21:00,40.0,40.0,30.18,NNW,333,3.0,5.0,99,0.00,,,0.02,,2013-05-05 03:21:00,
2013-05-04 22:33:00,41.0,41.0,30.18,NNW,340,6.0,8.0,99,0.00,,,0.02,,2013-05-05 03:33:00,
2013-05-04 22:42:00,41.0,41.0,30.18,NNW,340,6.0,8.0,99,0.00,,,0.02,,2013-05-05 03:42:00,
2013-05-04 22:53:00,40.0,40.0,30.18,NNW,336,5.0,6.0,99,0.00,,,0.02,,2013-05-05 03:53:00,
2013-05-04 23:02:00,40.0,40.0,30.18,NNW,347,5.0,6.0,99,0.00,,,0.02,,2013-05-05 04:02:00,
2013-05-04 23:12:00,40.0,40.0,30.18,NNW,341,6.0,8.0,99,0.00,,,0.02,,2013-05-05 04:12:00,
2013-05-04 23:22:00,40.0,40.0,30.18,NNW,341,6.0,8.0,99,0.00,,,0.02,,2013-05-05 04:22:00,
2013-05-04 23:32:00,40.0,40.0,30.18,NNW,344,6.0,7.0,99,0.00,,,0.02,,2013-05-05 04:32:00,
2013-05-04 23:43:00,40.0,40.0,30.18,NNW,344,6.0,7.0,99,0.00,,,0.02,,2013-05-05 04:43:00,
2013-05-04 23:53:00,40.0,40.0,30.17,NNW,341,8.0,10.0,99,0.00,,,0.02,,2013-05-05 04:53:00,